EN

Hourly Weather Lachhmangarh Sikar

Today, 23 July, Friday

Time Temperature Precipitation Wind Pressure Humidity
00:00 +34°C° 0 mm 3 mps 717 mmHg 64%
01:00 +34°C° 0 mm 3 mps 716 mmHg 64%
02:00 +34°C° 0 mm 2 mps 716 mmHg 64%
03:00 +32°C° 0 mm 2 mps 716 mmHg 66%
04:00 +32°C° 0 mm 2 mps 716 mmHg 69%
05:00 +32°C° 0 mm 1 mps 716 mmHg 69%
06:00 +32°C° 0.8 mm 1 mps 717 mmHg 66%
07:00 +31°C° 0.8 mm 0 mps 717 mmHg 64%
08:00 +31°C° 0.8 mm 0 mps 718 mmHg 61%
09:00 +31°C° 0 mm 0 mps 718 mmHg 60%
10:00 +34°C° 0 mm 1 mps 718 mmHg 59%
11:00 +34°C° 0 mm 1 mps 718 mmHg 57%
12:00 +34°C° 0 mm 1 mps 718 mmHg 55%
13:00 +35°C° 0 mm 1 mps 717 mmHg 54%
14:00 +35°C° 0 mm 1 mps 717 mmHg 52%
15:00 +35°C° 0 mm 1 mps 717 mmHg 53%
16:00 +34°C° 0 mm 1 mps 717 mmHg 54%
17:00 +35°C° 0 mm 2 mps 716 mmHg 56%
18:00 +34°C° 0 mm 2 mps 717 mmHg 59%
19:00 +34°C° 0 mm 2 mps 717 mmHg 62%
20:00 +32°C° 0 mm 2 mps 718 mmHg 65%
21:00 +32°C° 0 mm 2 mps 718 mmHg 67%
22:00 +32°C° 0 mm 2 mps 718 mmHg 68%
23:00 +32°C° 0 mm 2 mps 718 mmHg 70%

Tomorrow, 24 July, Saturday

Time Temperature Precipitation Wind Pressure Humidity
00:00 +31°C° 0.1 mm 2 mps 718 mmHg 72%
01:00 +30°C° 0.1 mm 3 mps 718 mmHg 75%
02:00 +30°C° 0.1 mm 3 mps 718 mmHg 78%
03:00 +30°C° 0.1 mm 2 mps 718 mmHg 78%
04:00 +30°C° 0.1 mm 2 mps 718 mmHg 79%
05:00 +29°C° 0.1 mm 1 mps 718 mmHg 80%
06:00 +30°C° 0.3 mm 1 mps 719 mmHg 75%
07:00 +31°C° 0.3 mm 1 mps 719 mmHg 71%
08:00 +32°C° 0.3 mm 2 mps 720 mmHg 66%
09:00 +33°C° 0 mm 1 mps 720 mmHg 60%
10:00 +34°C° 0 mm 1 mps 720 mmHg 55%
11:00 +34°C° 0 mm 0 mps 720 mmHg 49%
12:00 +36°C° 0.1 mm 1 mps 719 mmHg 48%
13:00 +37°C° 0.1 mm 1 mps 719 mmHg 46%
14:00 +37°C° 0.1 mm 1 mps 718 mmHg 44%
15:00 +37°C° 0 mm 1 mps 718 mmHg 44%
16:00 +37°C° 0 mm 1 mps 718 mmHg 45%
17:00 +37°C° 0 mm 1 mps 718 mmHg 45%
18:00 +36°C° 0 mm 1 mps 718 mmHg 47%
19:00 +36°C° 0 mm 1 mps 718 mmHg 49%
20:00 +36°C° 0 mm 1 mps 718 mmHg 51%
21:00 +35°C° 0 mm 1 mps 718 mmHg 52%
22:00 +35°C° 0 mm 1 mps 718 mmHg 52%
23:00 +35°C° 0 mm 1 mps 718 mmHg 53%

Day after tomorrow, 25 July, Sunday

Time Temperature Precipitation Wind Pressure Humidity
00:00 +35°C° 0 mm 1 mps 718 mmHg 54%
01:00 +34°C° 0 mm 1 mps 718 mmHg 54%
02:00 +34°C° 0 mm 1 mps 717 mmHg 55%
03:00 +35°C° 0 mm 2 mps 717 mmHg 56%
04:00 +35°C° 0 mm 2 mps 717 mmHg 57%
05:00 +34°C° 0 mm 2 mps 718 mmHg 58%
06:00 +35°C° 0 mm 3 mps 718 mmHg 57%
07:00 +35°C° 0 mm 3 mps 718 mmHg 55%
08:00 +36°C° 0 mm 4 mps 719 mmHg 54%
09:00 +37°C° 0 mm 4 mps 719 mmHg 51%
10:00 +38°C° 0 mm 3 mps 719 mmHg 49%
11:00 +39°C° 0 mm 3 mps 719 mmHg 46%
12:00 +39°C° 0 mm 3 mps 718 mmHg 44%
13:00 +40°C° 0 mm 2 mps 718 mmHg 42%
14:00 +40°C° 0 mm 1 mps 717 mmHg 40%
15:00 +39°C° 0 mm 2 mps 717 mmHg 42%
16:00 +39°C° 0 mm 3 mps 717 mmHg 44%
17:00 +38°C° 0 mm 4 mps 717 mmHg 46%
18:00 +38°C° 0 mm 3 mps 717 mmHg 49%
19:00 +37°C° 0 mm 3 mps 718 mmHg 52%
20:00 +36°C° 0 mm 3 mps 718 mmHg 54%
21:00 +36°C° 0.1 mm 3 mps 718 mmHg 56%
22:00 +35°C° 0.1 mm 2 mps 718 mmHg 58%
23:00 +35°C° 0.1 mm 2 mps 718 mmHg 59%

26 July, Monday

Time Temperature Precipitation Wind Pressure Humidity
00:00 +35°C° 0.1 mm 3 mps 718 mmHg 62%
01:00 +34°C° 0.1 mm 4 mps 717 mmHg 64%
02:00 +33°C° 0.1 mm 4 mps 717 mmHg 67%
03:00 +33°C° 0 mm 4 mps 717 mmHg 69%
04:00 +32°C° 0 mm 5 mps 718 mmHg 72%
05:00 +32°C° 0 mm 5 mps 718 mmHg 75%
06:00 +32°C° 0 mm 5 mps 718 mmHg 73%
07:00 +33°C° 0 mm 5 mps 719 mmHg 71%
08:00 +33°C° 0 mm 5 mps 719 mmHg 68%
09:00 +34°C° 0.1 mm 5 mps 719 mmHg 62%
10:00 +36°C° 0.1 mm 4 mps 719 mmHg 57%
11:00 +37°C° 0.1 mm 4 mps 719 mmHg 51%
12:00 +38°C° 0.5 mm 4 mps 718 mmHg 50%
13:00 +38°C° 0.5 mm 4 mps 718 mmHg 50%
14:00 +38°C° 0.5 mm 3 mps 717 mmHg 50%
15:00 +36°C° 1.6 mm 3 mps 717 mmHg 55%
16:00 +35°C° 1.6 mm 3 mps 717 mmHg 60%
17:00 +34°C° 1.6 mm 3 mps 717 mmHg 65%
18:00 +33°C° 2.3 mm 4 mps 717 mmHg 69%
19:00 +32°C° 2.3 mm 5 mps 717 mmHg 74%
20:00 +32°C° 2.3 mm 6 mps 717 mmHg 78%
21:00 +30°C° 2.2 mm 4 mps 717 mmHg 79%
22:00 +30°C° 2.2 mm 3 mps 718 mmHg 80%
23:00 +30°C° 2.2 mm 2 mps 718 mmHg 80%

27 July, Tuesday

Time Temperature Precipitation Wind Pressure Humidity
00:00 +30°C° 0.9 mm 3 mps 717 mmHg 80%
01:00 +30°C° 0.9 mm 4 mps 717 mmHg 79%
02:00 +30°C° 0.9 mm 5 mps 717 mmHg 78%
03:00 +30°C° 0.1 mm 5 mps 717 mmHg 78%
04:00 +30°C° 0.1 mm 6 mps 717 mmHg 77%
05:00 +29°C° 0.1 mm 7 mps 717 mmHg 77%
06:00 +29°C° 0 mm 7 mps 717 mmHg 76%
07:00 +30°C° 0 mm 7 mps 717 mmHg 76%
08:00 +30°C° 0 mm 7 mps 718 mmHg 75%
09:00 +30°C° 0 mm 7 mps 717 mmHg 73%
10:00 +32°C° 0 mm 6 mps 717 mmHg 71%
11:00 +32°C° 0 mm 6 mps 717 mmHg 69%
12:00 +34°C° 0.1 mm 6 mps 717 mmHg 63%
13:00 +35°C° 0.1 mm 6 mps 716 mmHg 58%
14:00 +36°C° 0.1 mm 6 mps 716 mmHg 53%
15:00 +36°C° 0 mm 6 mps 716 mmHg 52%
16:00 +36°C° 0 mm 6 mps 716 mmHg 51%
17:00 +36°C° 0 mm 5 mps 715 mmHg 51%
18:00 +35°C° 0 mm 6 mps 716 mmHg 53%
19:00 +34°C° 0 mm 6 mps 716 mmHg 56%
20:00 +34°C° 0 mm 6 mps 716 mmHg 58%
21:00 +34°C° 0 mm 6 mps 716 mmHg 60%
22:00 +33°C° 0 mm 6 mps 716 mmHg 61%
23:00 +33°C° 0 mm 6 mps 716 mmHg 63%

28 July, Wednesday

Time Temperature Precipitation Wind Pressure Humidity
00:00 +33°C° 0 mm 6 mps 716 mmHg 64%
01:00 +32°C° 0 mm 7 mps 716 mmHg 65%
02:00 +32°C° 0 mm 8 mps 715 mmHg 66%
03:00 +31°C° 0 mm 8 mps 715 mmHg 69%
04:00 +31°C° 0 mm 8 mps 716 mmHg 72%
05:00 +29°C° 0 mm 7 mps 716 mmHg 75%
06:00 +29°C° 0 mm 8 mps 716 mmHg 73%
07:00 +31°C° 0 mm 8 mps 716 mmHg 72%
08:00 +31°C° 0 mm 8 mps 717 mmHg 70%
09:00 +32°C° 0 mm 8 mps 717 mmHg 65%
10:00 +34°C° 0 mm 8 mps 717 mmHg 60%
11:00 +35°C° 0 mm 8 mps 717 mmHg 55%
12:00 +35°C° 0 mm 7 mps 716 mmHg 55%
13:00 +35°C° 0 mm 7 mps 716 mmHg 55%
14:00 +34°C° 0 mm 7 mps 716 mmHg 55%
15:00 +34°C° 0 mm 6 mps 716 mmHg 56%
16:00 +34°C° 0 mm 6 mps 715 mmHg 57%
17:00 +34°C° 0 mm 6 mps 715 mmHg 59%
18:00 +33°C° 0 mm 6 mps 715 mmHg 60%
19:00 +33°C° 0 mm 6 mps 716 mmHg 62%
20:00 +33°C° 0 mm 6 mps 716 mmHg 64%
21:00 +32°C° 0 mm 6 mps 716 mmHg 66%
22:00 +32°C° 0 mm 6 mps 716 mmHg 69%
23:00 +30°C° 0 mm 7 mps 716 mmHg 72%
Show more